Weather History for PHBK - April, 2013

Change the Weather History Date:

Thursday, April 18, 2013

  Actual Average Record
Temperature  
Mean Temperature 74 °F -  
Max Temperature 81 °F 84 °F 88 °F (1977)
Min Temperature 68 °F 63 °F 59 °F (1966)
Cooling Degree Days 10    
Growing Degree Days 24 (Base 50)    
Moisture  
Dew Point 65 °F    
Average Humidity 75    
Maximum Humidity 88    
Minimum Humidity 58    
Precipitation  
Precipitation 0.00 in - - ()
Sea Level Pressure  
Sea Level Pressure 30.12 in    
Wind  
Wind Speed 4 mph (SE)    
Max Wind Speed 10 mph    
Max Gust Speed -    
Visibility 10 miles    
Events      
Averages and records for this station are not official NWS values.
T = Trace of Precipitation, MM = Missing Value Source: NWS Daily Summary

Daily Weather History Graph

Daily Weather History Graph

Search for Another Location

Airport or City:

Trip Planner

Search our weather history database for the weather conditions in past years. The results will help you decide how hot, cold, wet, or windy it might be!

Date:

Astronomy

Apr. 18, 2013 Rise Set
Actual Time 6:16 AM HST 7:00 PM HST
Civil Twilight 5:53 AM HST 7:23 PM HST
Nautical Twilight 5:26 AM HST 7:50 PM HST
Astronomical Twilight 4:59 AM HST 8:17 PM HST
Moon 12:46 PM HST (4/18) 1:13 AM HST (4/18)
Length of Visible Light 13h 29m
Length of Day
12h 43m
First Quarter, 54% of the Moon is Illuminated
Apr 18
First Quarter
Apr 25
Full
May 2
Last Quarter
May 9
New
May 17
First Quarter

Hourly Weather History & Observations

Time (HST) Temp. Heat Index Dew Point Humidity Pressure Visibility Wind Dir Wind Speed Gust Speed Precip Events Conditions
12:51 AM 69.8 °F - 64.4 °F 83% 30.13 in 10.0 mi SE 5.8 mph - N/A   Mostly Cloudy
12:56 AM 70.0 °F - 64.0 °F 81% 30.14 in 10.0 mi SE 4.6 mph - N/A   Mostly Cloudy
1:41 AM 69.8 °F - 66.2 °F 88% 30.12 in 10.0 mi ESE 3.5 mph - N/A   Mostly Cloudy
1:48 AM 71.6 °F - 66.2 °F 83% 30.12 in 10.0 mi ESE 3.5 mph - N/A   Mostly Cloudy
1:56 AM 71.1 °F - 66.0 °F 84% 30.13 in 10.0 mi ESE 3.5 mph - N/A   Scattered Clouds
2:08 AM 69.8 °F - 66.2 °F 88% 30.12 in 10.0 mi Calm Calm - N/A   Mostly Cloudy
2:11 AM 69.8 °F - 66.2 °F 88% 30.11 in 10.0 mi Calm Calm - N/A   Mostly Cloudy
2:56 AM 70.0 °F - 62.1 °F 76% 30.11 in 10.0 mi SE 4.6 mph - N/A   Clear
3:56 AM 69.1 °F - 63.0 °F 81% 30.10 in 10.0 mi ENE 3.5 mph - N/A   Clear
4:56 AM 68.0 °F - 63.0 °F 84% 30.11 in 10.0 mi East 3.5 mph - N/A   Clear
5:56 AM 68.0 °F - 61.0 °F 78% 30.12 in 10.0 mi East 3.5 mph - N/A   Clear
6:56 AM 69.1 °F - 63.0 °F 81% 30.13 in 10.0 mi SE 4.6 mph - N/A   Mostly Cloudy
7:56 AM 73.9 °F - 64.9 °F 73% 30.14 in 10.0 mi Calm Calm - N/A   Overcast
10:56 AM 78.1 °F - 66.0 °F 66% 30.16 in 10.0 mi NW 8.1 mph - N/A   Mostly Cloudy
11:56 AM 79.0 °F - 66.9 °F 66% 30.15 in 10.0 mi NW 10.4 mph - N/A   Scattered Clouds
12:56 PM 80.1 °F 82.1 °F 66.0 °F 62% 30.13 in 10.0 mi NW 10.4 mph - N/A   Mostly Cloudy
1:56 PM 79.0 °F - 64.9 °F 62% 30.12 in 10.0 mi West 5.8 mph - N/A   Overcast
2:56 PM 80.1 °F 81.9 °F 64.9 °F 60% 30.09 in 10.0 mi WSW 5.8 mph - N/A   Overcast
3:56 PM 81.0 °F 82.7 °F 64.9 °F 58% 30.09 in 10.0 mi WSW 6.9 mph - N/A   Scattered Clouds
5:56 PM 78.1 °F - 66.9 °F 68% 30.10 in 10.0 mi SW 8.1 mph - N/A   Partly Cloudy
6:56 PM 77.0 °F - 66.9 °F 71% 30.11 in 10.0 mi WSW 6.9 mph - N/A   Overcast
7:56 PM 75.9 °F - 66.9 °F 74% 30.13 in 10.0 mi Calm Calm - N/A   Clear
8:56 PM 73.0 °F - 64.9 °F 76% 30.14 in 10.0 mi Calm Calm - N/A   Scattered Clouds
9:56 PM 72.0 °F - 63.0 °F 73% 30.15 in 10.0 mi ESE 3.5 mph - N/A   Clear
10:56 PM 71.1 °F - 64.0 °F 78% 30.14 in 10.0 mi Calm Calm - N/A   Scattered Clouds
11:56 PM 71.1 °F - 64.0 °F 78% 30.14 in 10.0 mi NE 3.5 mph - N/A   Overcast